Location: Kalberh�ni
(46.4610°N, 7.2453°E)
Time: 00:35:11
(UTC+00:00)

Cosmos 1725 Rocket - Visible Passes

Search period start: 23 October 2021 00:00
Search period end: 02 November 2021 00:00
Orbit: 961 x 991 km, 82.9° (Epoch: 22 October)

Date Brightness Start Highest point End Pass type
(mag) Time Alt. Az. Time Alt. Az. Time Alt. Az.
23 Oct 6.4 05:21:25 10° NNE 05:26:10 22° ENE 05:30:54 10° ESE visible
23 Oct 6.0 19:04:42 13° NNE 19:04:42 13° NNE 19:05:18 10° NNE visible
23 Oct 6.3 20:49:21 16° NNW 20:49:21 16° NNW 20:50:42 10° N visible
24 Oct 5.8 19:29:50 17° NNE 19:29:50 17° NNE 19:31:12 10° NNE visible
24 Oct 6.5 21:14:28 14° NNW 21:14:28 14° NNW 21:15:42 10° NNW visible
25 Oct 6.8 04:29:18 10° NE 04:31:14 11° ENE 04:33:09 10° ENE visible
25 Oct 5.8 19:54:52 21° N 19:54:52 21° N 19:56:50 10° N visible
25 Oct 6.8 21:39:31 11° NW 21:39:31 11° NW 21:39:51 10° NNW visible
26 Oct 6.5 04:53:05 10° NNE 04:57:30 20° ENE 05:01:53 10° ESE visible
26 Oct 5.6 18:35:09 17° NNE 18:35:09 17° NNE 18:36:37 10° NNE visible
26 Oct 5.8 20:19:46 23° NNW 20:19:46 23° NNW 20:22:14 10° N visible
27 Oct 5.8 05:18:00 10° N 05:23:32 33° ENE 05:29:03 10° SE visible
27 Oct 5.2 18:59:49 28° NNE 18:59:49 28° NNE 19:02:35 10° NNE visible
27 Oct 6.1 20:44:26 21° NW 20:44:26 21° NW 20:47:20 10° NNW visible
28 Oct 5.5 17:39:22 15° ENE 17:39:22 15° ENE 17:41:19 10° NE visible
28 Oct 4.5 19:15:51 10° SSW 19:23:54 48° N 19:28:17 10° N visible
28 Oct 6.5 21:08:25 14° WNW 21:08:32 14° WNW 21:11:48 10° NNW visible
29 Oct 6.6 04:24:48 10° NNE 04:28:48 17° ENE 04:32:47 10° ESE visible
29 Oct 4.6 17:57:22 10° SE 18:02:38 30° E 18:07:54 10° NNE visible
29 Oct 4.8 19:41:51 10° SSW 19:47:47 47° WNW 19:53:45 10° N visible
30 Oct 6.0 04:49:34 10° N 04:54:54 29° ENE 05:00:13 10° SE visible
30 Oct 4.0 18:22:00 10° SSE 18:27:59 53° E 18:33:59 10° NNE visible
30 Oct 5.7 20:08:29 10° SW 20:13:42 28° WNW 20:18:56 10° N visible
31 Oct 5.0 05:14:47 10° N 05:20:48 49° ENE 05:26:47 10° SSE visible
31 Oct 5.3 17:05:45 10° ESE 17:09:02 15° ENE 17:12:20 10° NE visible
31 Oct 3.8 18:47:17 10° S 18:53:30 90° ESE 18:59:44 10° N visible
31 Oct 6.4 20:36:02 10° W 20:39:49 17° WNW 20:43:37 10° NNW visible
01 Nov 6.7 03:56:35 10° NNE 04:00:06 15° ENE 04:03:37 10° E visible
01 Nov 4.1 05:40:17 10° N 05:46:30 85° E 05:52:43 10° S visible
01 Nov 4.8 17:29:10 10° SE 17:34:11 27° E 17:39:10 10° NNE visible
01 Nov 4.6 19:13:09 10° SSW 19:19:11 53° WNW 19:25:15 10° N visible
